Weather observations for the past three days for
Hearne, Hearne Municipal Airport
Imperial (Metric)
Date Time (cdt) Wind (mph) Vis. (mi.) Weather Sky Cond. Temperature (ºF) Relative Humidity Wind Chill (°F) Heat Index (°F) Pressure Precipitation (in)
Air Dwpt 6 hour altimeter (in) sea level (mb) 1 hr 3 hr 6 hr
Max. Min.
21 17:35 E 6 10.00 Mostly Cloudy SCT055 BKN100 87.8 73.4 62% 96 29.97 0.0
21 17:15 NE 6 10.00 Mostly Cloudy SCT036 SCT044 BKN100 87.6 73.2 62% 95 29.96 0.0
21 16:55 E 12 G 16 10.00 Mostly Cloudy SCT036 BKN044 88.2 72.9 61% 96 29.95 0.0
21 16:35 NE 5 10.00 Mostly Cloudy SCT044 SCT050 BKN090 90.5 75 61% 101 29.95 0.0
21 16:15 N 8 10.00 Overcast BKN044 OVC070 90.9 74.7 59% 101 29.96 0.0
21 15:55 NE 3 10.00 Mostly Cloudy BKN047 BKN060 BKN110 92.1 72.7 53% 101 29.96 0.0
21 15:35 Calm 10.00 Mostly Cloudy SCT038 BKN049 92.8 73.4 53% 102 29.97 0.0
21 15:15 NE 5 10.00 Partly Cloudy SCT038 SCT049 92.7 73.9 55% 103 29.97 0.0
21 14:55 Calm 10.00 Fair CLR 91.8 72.7 54% 100 29.97 0.0
21 14:35 N 3 10.00 Fair CLR 90.9 73.2 56% 100 29.98 0.0
21 14:15 N 3 10.00 Fair CLR 90.9 72.9 56% 99 29.98 0.0
21 13:55 N 8 10.00 Partly Cloudy SCT038 91.2 73.2 56% 100 29.99 0.0
21 13:35 N 9 10.00 Partly Cloudy SCT036 91.4 75.4 60% 103 30 0.0
21 13:15 N 6 10.00 Partly Cloudy SCT038 90.7 74.3 59% 101 30.01 0.0
21 12:55 NW 6 10.00 Partly Cloudy SCT035 SCT046 SCT055 89.8 74.7 90.3 74.5 61% 100 30.01 0.0
21 12:35 Calm 10.00 Partly Cloudy SCT038 SCT046 SCT065 90 73.6 59% 99 30.02 0.0
21 12:15 Calm 10.00 Partly Cloudy SCT030 SCT065 90.3 74.7 60% 101 30.02 0.0
21 11:55 W 5 10.00 Partly Cloudy SCT030 88.5 74.5 63% 98 30.03 0.0
21 11:35 Calm 10.00 Fair CLR 88 73.9 63% 97 30.03 0.0
21 11:15 NW 5 10.00 Partly Cloudy SCT024 SCT065 87.6 75.2 67% 97 30.03 0.0
21 10:55 NW 5 10.00 Mostly Cloudy SCT022 BKN028 86.2 75 69% 95 30.03 0.0
21 10:35 W 5 10.00 Mostly Cloudy BKN020 BKN028 85.3 75.4 72% 94 30.03 0.0
21 10:15 W 6 10.00 Mostly Cloudy BKN018 BKN024 84.7 75.9 75% 94 30.04 0.0
21 09:55 W 5 7.00 Partly Cloudy SCT014 84.4 76.8 78% 94 30.04 0.0
21 09:35 SW 6 10.00 Partly Cloudy SCT013 82.8 76.3 81% 91 30.04 0.0
21 09:15 Calm 10.00 Fair CLR 81.1 75.9 84% 88 30.05 0.0
21 08:55 Calm 10.00 Fair CLR 80.6 75.7 85% 86 30.04 0.0
21 08:35 Calm 10.00 Fair CLR 79.3 74.8 86% 83 30.04 0.0
21 08:15 Calm 10.00 Partly Cloudy SCT065 78.3 74.3 88% 81 30.04 0.0
21 07:55 Calm 10.00 Mostly Cloudy BKN065 76.8 73.8 90% 78 30.04 0.0
21 07:35 Calm 10.00 Mostly Cloudy BKN065 76.1 73 90% 76 30.04 0.0
21 07:15 Calm 10.00 Partly Cloudy SCT065 74.7 72.5 93% 30.03 0.0
21 06:55 Calm 10.00 Fair CLR 74.7 72.5 77.9 74.3 93% 30.03 0.0
21 06:35 Calm 10.00 Fair CLR 74.5 72.1 92% 30.02 0.0
21 06:15 Calm 10.00 Fair CLR 74.3 71.8 92% 30.02 0.0
21 05:55 Calm 10.00 Fair CLR 74.5 72.1 92% 30.01 0.0
21 05:35 Calm 10.00 Fair CLR 74.7 71.8 91% 30.01 0.0
21 05:15 Calm 10.00 Fair CLR 75.2 71.8 89% 75 30.01 0.0
21 04:55 Calm 10.00 Fair CLR 75.2 71.6 89% 75 30 0.0
21 04:35 Calm 10.00 Fair CLR 75.2 71.4 88% 75 30 0.0
21 04:15 Calm 10.00 Fair CLR 75.4 71.2 87% 75 30.01 0.0
21 03:55 Calm 10.00 Fair CLR 75.2 71.2 88% 75 30.01 0.0
21 03:35 Calm 10.00 Partly Cloudy SCT055 75.6 70.7 85% 76 30.02 0.0
21 03:15 Calm 10.00 Partly Cloudy SCT048 SCT055 76.5 70 80% 78 30.03 0.0
21 02:55 Calm 10.00 Fair CLR 76.1 69.8 81% 77 30.02 0.0
21 02:35 Calm 10.00 Fair CLR 76.5 69.8 80% 78 30.02 0.0
21 02:15 Calm 10.00 Fair CLR 76.6 69.4 79% 78 30.02 0.0
21 01:55 Calm 10.00 Fair CLR 76.6 69.4 79% 78 30.02 0.0
21 01:35 SE 3 10.00 Fair CLR 77.2 69.3 77% 79 30.02 0.0
21 01:15 E 3 10.00 Fair CLR 77.5 69.3 76% 79 30.03 0.0
21 00:55 E 3 10.00 Fair CLR 77.5 69.8 90.5 76.3 77% 79 30.03 0.0
21 00:35 Calm 10.00 Fair CLR 76.8 70 80% 78 30.03 0.0
21 00:15 Calm 10.00 Fair CLR 76.8 70.3 80% 78 30.03 0.0
20 23:55 Calm 10.00 Fair CLR 77 70.3 80% 79 30.03 0.0
20 23:35 Calm 10.00 Fair CLR 76.6 70.2 80% 78 30.03 0.0
20 23:15 Calm 10.00 Fair CLR 77 70.5 80% 79 30.03 0.0
20 22:55 Calm 10.00 Fair CLR 77.7 70.2 78% 80 30.03 0.0
20 22:35 Calm 10.00 Fair CLR 77 69.8 79% 79 30.02 0.0
20 22:15 Calm 10.00 Fair CLR 77.4 70 78% 79 30.01 0.0
20 21:55 Calm 10.00 Fair CLR 77.7 69.6 76% 80 30 0.0
20 21:35 Calm 10.00 Fair CLR 78.8 69.8 74% 81 30 0.0
20 21:15 Calm 10.00 Fair CLR 79.3 70.3 74% 82 30 0.0
20 20:55 Calm 10.00 Fair CLR 81.7 70 68% 85 30 0.0
20 20:35 Calm 10.00 Fair CLR 84.2 68.4 59% 88 30 0.0
20 20:15 Calm 10.00 Fair CLR 86.9 65.8 50% 89 30 0.0
20 19:55 Calm 10.00 Fair CLR 88 66.2 49% 90 30 0.0
20 19:35 Calm 10.00 Fair CLR 89.1 66.2 47% 92 29.99 0.0
20 19:15 E 3 10.00 Fair CLR 90.1 64.2 42% 92 29.99 0.0
20 18:55 E 7 10.00 Fair CLR 90.5 62.1 92.5 88.9 39% 91 29.99 0.0
20 18:35 E 7 10.00 Fair CLR 91 64 41% 93 29.99 0.0
20 18:15 E 6 7.00 Fair CLR 91.4 65.5 42% 94 29.99 0.0
20 17:55 E 5 10.00 Fair CLR 91.9 63 38% 93 30 0.0
20 17:35 NE 7 10.00 Fair CLR 91.8 63.9 40% 93 30 0.0
20 17:15 NE 6 10.00 Fair CLR 91.8 65.1 41% 94 30.01 0.0
20 16:55 NE 7 10.00 Fair CLR 91.8 65.5 42% 94 30.01 0.0
20 16:15 N 7 10.00 Partly Cloudy SCT060 91.6 66.7 44% 95 30.02 0.0
20 15:55 NE 7 10.00 Partly Cloudy SCT060 92.5 66.7 43% 96 30.03 0.0
20 15:35 N 3 10.00 Partly Cloudy SCT060 91.4 65.5 42% 94 30.03 0.0
20 15:15 Calm 10.00 Partly Cloudy SCT060 91 64.9 42% 93 30.03 0.0
20 14:55 NW 5 10.00 Mostly Cloudy BKN060 90.7 66.9 46% 94 30.04 0.0
20 14:35 N 7 10.00 Mostly Cloudy BKN060 90.9 65.8 44% 93 30.05 0.0
20 14:15 N 6 10.00 Mostly Cloudy BKN060 90.3 65.7 44% 93 30.05 0.0
20 13:55 NE 5 10.00 Partly Cloudy SCT050 90.1 66.2 45% 93 30.06 0.0
20 13:35 N 5 10.00 Partly Cloudy SCT050 89.2 66.2 47% 92 30.06 0.0
20 13:15 N 7 10.00 Partly Cloudy SCT055 90.3 67.5 47% 94 30.06 0.0
20 12:55 N 3 10.00 Fair CLR 89.1 65.8 89.6 70 46% 91 30.07 0.0
20 12:35 N 5 10.00 Fair CLR 89.2 66.7 47% 92 30.06 0.0
20 12:15 N 7 10.00 Fair CLR 88.3 67.8 51% 92 30.06 0.0
20 11:55 Calm 10.00 Fair CLR 88.2 68 51% 92 30.06 0.0
20 11:35 NW 3 10.00 Fair CLR 87.6 67.5 51% 91 30.06 0.0
20 11:15 Calm 10.00 Fair CLR 85.5 68.5 57% 89 30.07 0.0
20 10:55 Calm 10.00 Fair CLR 84.7 71.8 65% 90 30.07 0.0
20 10:35 S 3 10.00 Fair CLR 84.2 72.9 69% 91 30.07 0.0
20 10:15 SE 3 10.00 Fair CLR 83.3 72.9 71% 89 30.08 0.0
20 09:55 S 3 10.00 Fair CLR 82.8 72.7 72% 88 30.08 0.0
20 09:35 E 5 10.00 Fair CLR 81.7 72.1 73% 86 30.08 0.0
20 09:15 Calm 10.00 Fair CLR 81.1 71.8 73% 85 30.08 0.0
20 08:55 E 3 10.00 Fair CLR 79.3 70.5 75% 82 30.07 0.0
20 08:35 E 3 10.00 Fair CLR 77.7 69.8 77% 80 30.07 0.0
20 08:15 Calm 10.00 Fair CLR 75.7 69.3 80% 77 30.06 0.0
20 07:55 Calm 10.00 Fair CLR 73.2 68 84% 30.05 0.0
20 07:35 Calm 10.00 Fair CLR 71.4 68.2 90% 30.05 0.0
20 07:15 Calm 10.00 Fair CLR 70.7 68 91% 30.05 0.0
20 06:55 Calm 10.00 Fair CLR 70.5 67.8 78.1 70.3 91% 30.06 0.0
20 06:35 Calm 10.00 Partly Cloudy SCT070 70.7 67.3 89% 30.05 0.0
20 06:15 Calm 10.00 Partly Cloudy SCT070 70.9 67.6 90% 30.05 0.0
20 05:55 Calm 10.00 Partly Cloudy SCT070 71.6 67.3 86% 30.04 0.0
20 05:35 Calm 10.00 Fair CLR 70.7 67.8 91% 30.04 0.0
20 05:15 Calm 10.00 Fair CLR 71.1 68.2 91% 30.04 0.0
20 04:55 Calm 10.00 Fair CLR 71.4 68 89% 30.03 0.0
20 04:35 Calm 10.00 Fair CLR 71.8 67.6 87% 30.03 0.0
20 04:15 Calm 10.00 Fair CLR 71.4 67.5 87% 30.03 0.0
20 03:55 Calm 10.00 Fair CLR 71.6 67.6 87% 30.03 0.0
20 03:35 Calm 10.00 Fair CLR 72.7 67.3 83% 30.03 0.0
20 03:15 Calm 10.00 Fair CLR 74.7 66.7 76% 30.03 0.0
20 02:55 Calm 10.00 Fair CLR 75 67.3 77% 76 30.03 0.0
20 02:35 Calm 10.00 Fair CLR 75.9 66.7 73% 77 30.03 0.0
20 02:15 Calm 10.00 Fair CLR 76.1 66.6 72% 78 30.03 0.0
20 01:55 Calm 10.00 Fair CLR 76.5 66.7 72% 78 30.03 0.0
20 01:35 E 3 10.00 Fair CLR 77 66.7 71% 79 30.04 0.0
20 01:15 E 5 10.00 Fair CLR 77.5 67.1 70% 79 30.04 0.0
20 00:55 E 3 10.00 Fair CLR 78.1 67.1 89.8 78.1 69% 80 30.04 0.0
20 00:35 NE 3 10.00 Fair CLR 78.3 67.3 69% 80 30.04 0.0
20 00:15 E 3 10.00 Fair CLR 78.8 67.5 68% 81 30.04 0.0
19 23:55 NE 6 10.00 Fair CLR 79.2 67.8 68% 82 30.04 0.0
19 23:35 NE 3 10.00 Fair CLR 79.7 67.6 67% 82 30.04 0.0
19 23:15 NE 5 10.00 Fair CLR 80.1 68 67% 83 30.04 0.0
19 22:55 NE 3 10.00 Fair CLR 79.9 68.5 68% 83 30.03 0.0
19 22:35 NE 6 10.00 Fair CLR 80.6 68.9 68% 84 30.03 0.0
19 22:15 NE 6 10.00 Fair CLR 81.3 69.1 66% 85 30.02 0.0
19 21:55 NE 5 10.00 Fair CLR 81.7 69.4 67% 85 30.02 0.0
19 21:35 NE 7 10.00 Fair CLR 82.4 69.8 66% 86 30.01 0.0
19 21:15 NE 6 10.00 Fair CLR 82.6 70.2 66% 87 30 0.0
19 20:55 NE 3 10.00 Fair CLR 83.3 70.5 65% 88 30 0.0
19 20:35 NE 5 10.00 Fair CLR 84.6 70.2 62% 89 29.99 0.0
19 20:15 NE 5 10.00 Fair CLR 85.6 71.2 62% 91 29.99 0.0
19 19:55 E 6 10.00 Fair CLR 87.1 70.7 58% 93 29.98 0.0
19 19:35 NE 5 10.00 Fair CLR 87.3 69.8 56% 92 29.97 0.0
19 19:15 NE 6 10.00 Fair CLR 88.2 69.6 54% 93 29.97 0.0
19 18:55 E 6 10.00 Partly Cloudy SCT049 90 68.9 91.9 87.6 50% 95 29.97 0.0
19 18:35 NE 8 10.00 Partly Cloudy SCT049 91 70.3 51% 97 29.97 0.0
19 18:15 NE 7 10.00 Partly Cloudy SCT048 90.9 68.7 48% 95 29.97 0.0
19 17:55 NE 7 10.00 Partly Cloudy SCT048 91.6 70 49% 97 29.98 0.0
19 17:35 NE 6 10.00 Partly Cloudy SCT048 91.9 70.5 50% 98 29.98 0.0
19 17:15 E 6 10.00 Fair CLR 91.8 70 49% 98 29.98 0.0
19 16:55 NE 3 10.00 Fair CLR 91.2 70.3 50% 97 29.99 0.0
19 16:35 NE 7 10.00 Partly Cloudy SCT070 91 70.3 51% 97 29.99 0.0
19 16:15 Calm 10.00 Partly Cloudy SCT060 BKN070 SCT080 91.6 69.1 48% 97 30 0.0
19 15:55 NE 3 10.00 Mostly Cloudy SCT047 SCT060 BKN080 89.4 70.9 54% 96 30 0.0
19 15:35 NE 5 10.00 Partly Cloudy SCT045 SCT050 90.5 70.9 53% 97 30.01 0.0
19 15:15 E 5 10.00 Partly Cloudy SCT043 91.2 70.7 51% 98 30.01 0.0
19 14:55 N 8 10.00 Mostly Cloudy BKN043 90.1 70.5 53% 96 30.02 0.0
19 14:35 N 7 10.00 Partly Cloudy SCT041 90 71.8 55% 97 30.03 0.0
19 14:15 N 6 10.00 Partly Cloudy SCT039 90.1 70.9 53% 96 30.04 0.0
19 13:55 NE 6 10.00 Mostly Cloudy BKN037 89.2 72.1 57% 96 30.04 0.0
19 13:35 N 6 10.00 Partly Cloudy SCT035 88.7 72.1 58% 96 30.05 0.0
19 13:15 N 6 10.00 Partly Cloudy SCT033 88.3 72.1 59% 95 30.05 0.0
19 12:55 N 8 10.00 Partly Cloudy SCT030 SCT035 87.3 73 88 74.8 63% 95 30.06 0.0
19 12:35 N 6 10.00 Partly Cloudy SCT028 SCT037 86.4 72.7 64% 93 30.06 0.0
19 12:15 NE 8 10.00 Fair CLR 86.7 72.7 63% 94 30.07 0.0
19 11:55 N 5 10.00 Partly Cloudy SCT025 86 72.3 64% 93 30.08 0.0
19 11:35 NE 6 10.00 Partly Cloudy SCT022 SCT028 84.9 73 68% 92 30.08 0.0
19 11:15 NE 7 10.00 Partly Cloudy SCT020 SCT035 83.8 72.7 69% 90 30.08 0.0
19 10:55 N 5 10.00 Partly Cloudy SCT020 SCT035 82 73.2 75% 88 30.09 0.0
19 10:35 Calm 10.00 Mostly Cloudy BKN020 81 72.9 76% 86 30.1 0.0
19 10:15 Calm 10.00 Mostly Cloudy BKN014 80.8 73.2 78% 86 30.1 0.0
19 09:55 NE 3 10.00 Overcast OVC014 80.1 73 79% 84 30.1 0.0
19 09:35 NE 6 10.00 Mostly Cloudy BKN012 BKN110 79.5 73 81% 83 30.1 0.0
19 09:15 NE 7 10.00 Mostly Cloudy BKN010 79.7 73.4 81% 84 30.09 0.0
19 08:55 NE 5 10.00 Partly Cloudy SCT010 79 73.6 84% 82 30.08 0.0
19 08:35 N 3 10.00 Partly Cloudy SCT008 77.7 74.1 89% 80 30.08 0.0
19 08:15 NW 3 10.00 Fair CLR 76.8 73.8 90% 78 30.08 0.0
19 07:55 N 3 10.00 Fair CLR 76.1 73.8 93% 76 30.06 0.0
19 07:35 Calm 10.00 Fair CLR 75.6 73.6 94% 75 30.05 0.0
19 07:15 Calm 10.00 Fair CLR 75.2 73.2 94% 74 30.05 0.0
19 06:55 Calm 10.00 Fair CLR 75.2 73 79.9 75.2 93% 74 30.04 0.0
19 06:35 Calm 10.00 Fair CLR 75.4 73.4 94% 74 30.04 0.0
19 06:15 Calm 10.00 Partly Cloudy SCT120 75.6 73.4 93% 75 30.03 0.0
19 05:55 Calm 10.00 Mostly Cloudy BKN120 76.1 73.4 91% 76 30.03 0.0
19 05:35 N 3 10.00 Partly Cloudy SCT120 76.1 73.8 93% 76 30.03 0.0
19 05:15 Calm 10.00 Mostly Cloudy SCT031 BKN120 76.5 73.8 91% 77 30.03 0.0
19 04:55 Calm 10.00 Overcast BKN031 OVC120 77 73.6 89% 78 30.03 0.0
19 04:35 Calm 10.00 Overcast OVC031 77 73.4 89% 78 30.03 0.0
19 04:15 W 6 10.00 Overcast BKN027 OVC120 77 73.4 89% 78 30.03 0.0
19 03:55 Calm 10.00 Mostly Cloudy SCT027 BKN120 76.6 73.4 90% 77 30.03 0.0
19 03:35 N 3 10.00 Partly Cloudy SCT120 76.6 73.4 90% 77 30.02 0.0
19 03:15 N 3 10.00 Fair CLR 77.4 73.8 89% 79 30.02 0.0
19 02:55 Calm 10.00 Partly Cloudy SCT034 77.9 73.8 87% 80 30.03 0.0
19 02:35 Calm 10.00 Fair CLR 78.1 73.8 87% 81 30.03 0.0
19 02:15 Calm 10.00 Fair CLR 78.4 73.8 86% 81 30.04 0.0
19 01:55 Calm 10.00 Fair CLR 78.6 73.8 85% 82 30.04 0.0
19 01:15 Calm 10.00 Fair CLR 79.7 74.1 83% 84 30.04 0.0
19 00:55 NE 5 10.00 Partly Cloudy SCT110 80.1 74.3 90.9 80.1 83% 85 30.04 0.0
19 00:35 NE 6 10.00 Partly Cloudy SCT110 80.2 73.9 81% 85 30.04 0.0
19 00:15 NE 5 10.00 Fair CLR 80.6 74.3 81% 86 30.04 0.0
18 23:55 E 5 10.00 Partly Cloudy SCT120 80.8 74.3 81% 86 30.04 0.0
18 23:35 E 5 10.00 Partly Cloudy SCT120 81.3 74.1 79% 87 30.03 0.0
18 23:15 E 5 10.00 Partly Cloudy SCT080 81.1 74.5 80% 87 30.03 0.0
18 22:55 Calm 10.00 Partly Cloudy SCT080 81.7 74.8 80% 88 30.03 0.0
18 22:35 E 3 10.00 Partly Cloudy SCT080 81.9 75.2 80% 89 30.03 0.0
18 22:15 Calm 10.00 Fair CLR 82.2 75.2 79% 89 30.02 0.0
18 21:55 SE 3 10.00 Fair CLR 83.3 74.8 76% 91 30.01 0.0
18 21:35 E 6 10.00 Fair CLR 84 75 74% 92 30 0.0
18 20:55 E 5 10.00 Partly Cloudy SCT110 85.5 75.2 71% 94 29.99 0.0
18 20:35 E 5 10.00 Partly Cloudy SCT110 86.5 75 69% 96 29.98 0.0
18 20:15 E 5 10.00 Mostly Cloudy SCT060 BKN110 87.6 75 66% 97 29.97 0.0
18 19:55 E 5 10.00 Mostly Cloudy SCT060 BKN070 BKN080 88.9 74.7 63% 99 29.97 0.0
18 19:35 NE 6 10.00 Mostly Cloudy SCT070 BKN080 90.1 74.3 60% 100 29.96 0.0
18 19:15 E 5 10.00 Partly Cloudy SCT060 SCT075 SCT090 90.3 73.4 58% 99 29.96 0.0
18 18:55 NE 8 10.00 Mostly Cloudy SCT050 BKN065 BKN075 91.6 72.9 93.9 84.2 54% 100 29.95 0.0
18 18:35 NE 5 10.00 Partly Cloudy SCT050 SCT060 SCT075 92.5 71.6 51% 100 29.95 0.0
18 18:15 NE 6 10.00 Partly Cloudy SCT050 93.4 72.9 51% 102 29.95 0.0
18 17:55 N 5 7.00 Fair CLR 93.6 71.2 48% 101 29.95 0.0
Date Time (cdt) Wind (mph) Vis. (mi.) Weather Sky Cond. Air Dwpt Max. Min. Relative Humidity Wind Chill (°F) Heat Index (°F) altimeter (in) sea level (mb) 1 hr 3 hr 6 hr
6 hour
Temperature (ºF) Pressure Precipitation (in)